Year,Month,Day,Hour,Minute,Value (Times are PST for temperature in C)
2012,12,17,00,00,1.40
2012,12,17,00,01,1.30
2012,12,17,00,02,1.30
2012,12,17,00,03,1.30
2012,12,17,00,04,1.20
2012,12,17,00,05,1.20
2012,12,17,00,06,1.20
2012,12,17,00,07,1.20
2012,12,17,00,08,1.10
2012,12,17,00,09,1.10
2012,12,17,00,10,1.10
2012,12,17,00,11,1.10
2012,12,17,00,12,1.00
2012,12,17,00,13,1.00
2012,12,17,00,14,1.00
2012,12,17,00,15,0.90
2012,12,17,00,16,0.90
2012,12,17,00,17,0.90
2012,12,17,00,18,0.90
2012,12,17,00,19,0.90
2012,12,17,00,20,0.80
2012,12,17,00,21,0.80
2012,12,17,00,22,0.80
2012,12,17,00,23,0.80
2012,12,17,00,24,0.80
2012,12,17,00,25,0.80
2012,12,17,00,26,0.80
2012,12,17,00,27,0.70
2012,12,17,00,28,0.70
2012,12,17,00,29,0.70
2012,12,17,00,30,0.70
2012,12,17,00,31,0.70
2012,12,17,00,32,0.70
2012,12,17,00,33,0.70
2012,12,17,00,34,0.70
2012,12,17,00,35,0.70
2012,12,17,00,36,0.70
2012,12,17,00,37,0.70
2012,12,17,00,38,0.60
2012,12,17,00,39,0.60
2012,12,17,00,40,0.60
2012,12,17,00,41,0.60
2012,12,17,00,42,0.60
2012,12,17,00,43,0.60
2012,12,17,00,44,0.60
2012,12,17,00,45,0.60
2012,12,17,00,46,0.60
2012,12,17,00,47,0.60
2012,12,17,00,48,0.60
2012,12,17,00,49,0.60
2012,12,17,00,50,0.60
2012,12,17,00,51,0.60
2012,12,17,00,52,0.60
2012,12,17,00,53,0.60
2012,12,17,00,54,0.60
2012,12,17,00,55,0.60
2012,12,17,00,56,0.60
2012,12,17,00,57,0.60
2012,12,17,00,58,0.60
2012,12,17,00,59,0.60
2012,12,17,01,00,0.60
2012,12,17,01,01,0.60
2012,12,17,01,02,0.60
2012,12,17,01,03,0.60
2012,12,17,01,04,0.60
2012,12,17,01,05,0.60
2012,12,17,01,06,0.60
2012,12,17,01,07,0.60
2012,12,17,01,08,0.60
2012,12,17,01,09,0.60
2012,12,17,01,10,0.60
2012,12,17,01,11,0.60
2012,12,17,01,12,0.60
2012,12,17,01,13,0.60
2012,12,17,01,14,0.60
2012,12,17,01,15,0.60
2012,12,17,01,16,0.60
2012,12,17,01,17,0.60
2012,12,17,01,18,0.60
2012,12,17,01,19,0.60
2012,12,17,01,20,0.60
2012,12,17,01,21,0.60
2012,12,17,01,22,0.60
2012,12,17,01,23,0.60
2012,12,17,01,24,0.60
2012,12,17,01,25,0.60
2012,12,17,01,26,0.60
2012,12,17,01,27,0.60
2012,12,17,01,28,0.60
2012,12,17,01,29,0.60
2012,12,17,01,30,0.60
2012,12,17,01,31,0.60
2012,12,17,01,32,0.60
2012,12,17,01,33,0.60
2012,12,17,01,34,0.60
2012,12,17,01,35,0.60
2012,12,17,01,36,0.60
2012,12,17,01,37,0.60
2012,12,17,01,38,0.60
2012,12,17,01,39,0.60
2012,12,17,01,40,0.60
2012,12,17,01,41,0.60
2012,12,17,01,42,0.60
2012,12,17,01,43,0.60
2012,12,17,01,44,0.60
2012,12,17,01,45,0.50
2012,12,17,01,46,0.50
2012,12,17,01,47,0.50
2012,12,17,01,48,0.50
2012,12,17,01,49,0.50
2012,12,17,01,50,0.50
2012,12,17,01,51,0.50
2012,12,17,01,52,0.50
2012,12,17,01,53,0.50
2012,12,17,01,54,0.50
2012,12,17,01,55,0.50
2012,12,17,01,56,0.50
2012,12,17,01,57,0.50
2012,12,17,01,58,0.50
2012,12,17,01,59,0.50
2012,12,17,02,00,0.50
2012,12,17,02,01,0.50
2012,12,17,02,02,0.50
2012,12,17,02,03,0.50
2012,12,17,02,04,0.50
2012,12,17,02,05,0.50
2012,12,17,02,06,0.50
2012,12,17,02,07,0.60
2012,12,17,02,08,0.60
2012,12,17,02,09,0.60
2012,12,17,02,10,0.60
2012,12,17,02,11,0.60
2012,12,17,02,12,0.60
2012,12,17,02,13,0.60
2012,12,17,02,14,0.60
2012,12,17,02,15,0.60
2012,12,17,02,16,0.60
2012,12,17,02,17,0.60
2012,12,17,02,18,0.60
2012,12,17,02,19,0.60
2012,12,17,02,20,0.60
2012,12,17,02,21,0.60
2012,12,17,02,22,0.60
2012,12,17,02,23,0.60
2012,12,17,02,24,0.60
2012,12,17,02,25,0.60
2012,12,17,02,26,0.60
2012,12,17,02,27,0.60
2012,12,17,02,28,0.60
2012,12,17,02,29,0.60
2012,12,17,02,30,0.60
2012,12,17,02,31,0.60
2012,12,17,02,32,0.60
2012,12,17,02,33,0.60
2012,12,17,02,34,0.60
2012,12,17,02,35,0.60
2012,12,17,02,36,0.60
2012,12,17,02,37,0.60
2012,12,17,02,38,0.60
2012,12,17,02,39,0.60
2012,12,17,02,40,0.60
2012,12,17,02,41,0.60
2012,12,17,02,42,0.60
2012,12,17,02,43,0.60
2012,12,17,02,44,0.60
2012,12,17,02,45,0.60
2012,12,17,02,46,0.70
2012,12,17,02,47,0.70
2012,12,17,02,48,0.70
2012,12,17,02,49,0.70
2012,12,17,02,50,0.70
2012,12,17,02,51,0.70
2012,12,17,02,52,0.70
2012,12,17,02,53,0.70
2012,12,17,02,54,0.70
2012,12,17,02,55,0.70
2012,12,17,02,56,0.70
2012,12,17,02,57,0.70
2012,12,17,02,58,0.70
2012,12,17,02,59,0.80
2012,12,17,03,00,0.80
2012,12,17,03,01,0.80
2012,12,17,03,02,0.80
2012,12,17,03,03,0.80
2012,12,17,03,04,0.80
2012,12,17,03,05,0.80
2012,12,17,03,06,0.80
2012,12,17,03,07,0.80
2012,12,17,03,08,0.80
2012,12,17,03,09,0.80
2012,12,17,03,10,0.80
2012,12,17,03,11,0.80
2012,12,17,03,12,0.80
2012,12,17,03,13,0.80
2012,12,17,03,14,0.80
2012,12,17,03,15,0.80
2012,12,17,03,16,0.80
2012,12,17,03,17,0.80
2012,12,17,03,18,0.80
2012,12,17,03,19,0.80
2012,12,17,03,20,0.80
2012,12,17,03,21,0.80
2012,12,17,03,22,0.80
2012,12,17,03,23,0.80
2012,12,17,03,24,0.80
2012,12,17,03,25,0.80
2012,12,17,03,26,0.80
2012,12,17,03,27,0.80
2012,12,17,03,28,0.80
2012,12,17,03,29,0.80
2012,12,17,03,30,0.80
2012,12,17,03,31,0.80
2012,12,17,03,32,0.80
2012,12,17,03,33,0.80
2012,12,17,03,34,0.80
2012,12,17,03,35,0.80
2012,12,17,03,36,0.80
2012,12,17,03,37,0.80
2012,12,17,03,38,0.80
2012,12,17,03,39,0.80
2012,12,17,03,40,0.80
2012,12,17,03,41,0.80
2012,12,17,03,42,0.80
2012,12,17,03,43,0.80
2012,12,17,03,44,0.80
2012,12,17,03,45,0.80
2012,12,17,03,46,0.80
2012,12,17,03,47,0.80
2012,12,17,03,48,0.80
2012,12,17,03,49,0.80
2012,12,17,03,50,0.80
2012,12,17,03,51,0.80
2012,12,17,03,52,0.90
2012,12,17,03,53,0.90
2012,12,17,03,54,0.90
2012,12,17,03,55,0.90
2012,12,17,03,56,0.90
2012,12,17,03,57,0.90
2012,12,17,03,58,0.90
2012,12,17,03,59,0.90
2012,12,17,04,00,1.00
2012,12,17,04,01,1.00
2012,12,17,04,02,1.00
2012,12,17,04,03,1.00
2012,12,17,04,04,1.00
2012,12,17,04,05,1.10
2012,12,17,04,06,1.10
2012,12,17,04,07,1.10
2012,12,17,04,08,1.10
2012,12,17,04,09,1.10
2012,12,17,04,10,1.10
2012,12,17,04,11,1.10
2012,12,17,04,12,1.10
2012,12,17,04,13,1.10
2012,12,17,04,14,1.20
2012,12,17,04,15,1.20
2012,12,17,04,16,1.20
2012,12,17,04,17,1.20
2012,12,17,04,18,1.20
2012,12,17,04,19,1.20
2012,12,17,04,20,1.20
2012,12,17,04,21,1.20
2012,12,17,04,22,1.20
2012,12,17,04,23,1.20
2012,12,17,04,24,1.20
2012,12,17,04,25,1.30
2012,12,17,04,26,1.30
2012,12,17,04,27,1.30
2012,12,17,04,28,1.30
2012,12,17,04,29,1.30
2012,12,17,04,30,1.30
2012,12,17,04,31,1.30
2012,12,17,04,32,1.30
2012,12,17,04,33,1.30
2012,12,17,04,34,1.30
2012,12,17,04,35,1.30
2012,12,17,04,36,1.30
2012,12,17,04,37,1.40
2012,12,17,04,38,1.30
2012,12,17,04,39,1.40
2012,12,17,04,40,1.40
2012,12,17,04,41,1.40
2012,12,17,04,42,1.40
2012,12,17,04,43,1.40
2012,12,17,04,44,1.40
2012,12,17,04,45,1.40
2012,12,17,04,46,1.40
2012,12,17,04,47,1.40
2012,12,17,04,48,1.40
2012,12,17,04,49,1.40
2012,12,17,04,50,1.40
2012,12,17,04,51,1.40
2012,12,17,04,52,1.40
2012,12,17,04,53,1.40
2012,12,17,04,54,1.40
2012,12,17,04,55,1.40
2012,12,17,04,56,1.40
2012,12,17,04,57,1.40
2012,12,17,04,58,1.40
2012,12,17,04,59,1.40
2012,12,17,05,00,1.40
2012,12,17,05,01,1.40
2012,12,17,05,02,1.40
2012,12,17,05,03,1.50
2012,12,17,05,04,1.50
2012,12,17,05,05,1.50
2012,12,17,05,06,1.50
2012,12,17,05,07,1.50
2012,12,17,05,08,1.50
2012,12,17,05,09,1.50
2012,12,17,05,10,1.50
2012,12,17,05,11,1.50
2012,12,17,05,12,1.50
2012,12,17,05,13,1.60
2012,12,17,05,14,1.60
2012,12,17,05,15,1.60
2012,12,17,05,16,1.60
2012,12,17,05,17,1.60
2012,12,17,05,18,1.60
2012,12,17,05,19,1.60
2012,12,17,05,20,1.60
2012,12,17,05,21,1.60
2012,12,17,05,22,1.60
2012,12,17,05,23,1.60
2012,12,17,05,24,1.60
2012,12,17,05,25,1.60
2012,12,17,05,26,1.60
2012,12,17,05,27,1.60
2012,12,17,05,28,1.70
2012,12,17,05,29,1.70
2012,12,17,05,30,1.70
2012,12,17,05,31,1.70
2012,12,17,05,32,1.70
2012,12,17,05,33,1.70
2012,12,17,05,34,1.70
2012,12,17,05,35,1.70
2012,12,17,05,36,1.70
2012,12,17,05,37,1.70
2012,12,17,05,38,1.70
2012,12,17,05,39,1.70
2012,12,17,05,40,1.70
2012,12,17,05,41,1.70
2012,12,17,05,42,1.70
2012,12,17,05,43,1.70
2012,12,17,05,44,1.70
2012,12,17,05,45,1.70
2012,12,17,05,46,1.70
2012,12,17,05,47,1.70
2012,12,17,05,48,1.80
2012,12,17,05,49,1.80
2012,12,17,05,50,1.80
2012,12,17,05,51,1.80
2012,12,17,05,52,1.80
2012,12,17,05,53,1.80
2012,12,17,05,54,1.80
2012,12,17,05,55,1.80
2012,12,17,05,56,1.80
2012,12,17,05,57,1.80
2012,12,17,05,58,1.90
2012,12,17,05,59,1.90
2012,12,17,06,00,1.90
2012,12,17,06,01,1.90
2012,12,17,06,02,1.90
2012,12,17,06,03,1.90
2012,12,17,06,04,1.90
2012,12,17,06,05,1.90
2012,12,17,06,06,2.00
2012,12,17,06,07,2.00
2012,12,17,06,08,2.00
2012,12,17,06,09,2.00
2012,12,17,06,10,2.00
2012,12,17,06,11,2.00
2012,12,17,06,12,2.00
2012,12,17,06,13,2.00
2012,12,17,06,14,2.00
2012,12,17,06,15,2.10
2012,12,17,06,16,2.10
2012,12,17,06,17,2.10
2012,12,17,06,18,2.10
2012,12,17,06,19,2.10
2012,12,17,06,20,2.10
2012,12,17,06,21,2.10
2012,12,17,06,22,2.10
2012,12,17,06,23,2.10
2012,12,17,06,24,2.10
2012,12,17,06,25,2.10
2012,12,17,06,26,2.10
2012,12,17,06,27,2.10
2012,12,17,06,28,2.10
2012,12,17,06,29,2.10
2012,12,17,06,30,2.10
2012,12,17,06,31,2.10
2012,12,17,06,32,2.10
2012,12,17,06,33,2.10
2012,12,17,06,34,2.10
2012,12,17,06,35,2.10
2012,12,17,06,36,2.00
2012,12,17,06,37,2.00
2012,12,17,06,38,2.00
2012,12,17,06,39,2.00
2012,12,17,06,40,2.00
2012,12,17,06,41,2.10
2012,12,17,06,42,2.10
2012,12,17,06,43,2.10
2012,12,17,06,44,2.10
2012,12,17,06,45,2.20
2012,12,17,06,46,2.20
2012,12,17,06,47,2.20
2012,12,17,06,48,2.20
2012,12,17,06,49,2.30
2012,12,17,06,50,2.30
2012,12,17,06,51,2.30
2012,12,17,06,52,2.30
2012,12,17,06,53,2.30
2012,12,17,06,54,2.30
2012,12,17,06,55,2.30
2012,12,17,06,56,2.40
2012,12,17,06,57,2.40
2012,12,17,06,58,2.40
2012,12,17,06,59,2.40
2012,12,17,07,00,2.40
2012,12,17,07,01,2.50
2012,12,17,07,02,2.50
2012,12,17,07,03,2.60
2012,12,17,07,04,2.60
2012,12,17,07,05,2.60
2012,12,17,07,06,2.70
2012,12,17,07,07,2.70
2012,12,17,07,08,2.70
2012,12,17,07,09,2.70
2012,12,17,07,10,2.70
2012,12,17,07,11,2.70
2012,12,17,07,12,2.70
2012,12,17,07,13,2.70
2012,12,17,07,14,2.80
2012,12,17,07,15,2.80
2012,12,17,07,16,2.80
2012,12,17,07,17,2.80
2012,12,17,07,18,2.80
2012,12,17,07,19,2.80
2012,12,17,07,20,2.80
2012,12,17,07,21,2.80
2012,12,17,07,22,2.80
2012,12,17,07,23,2.80
2012,12,17,07,24,2.80
2012,12,17,07,25,2.80
2012,12,17,07,26,2.80
2012,12,17,07,27,2.80
2012,12,17,07,28,2.80
2012,12,17,07,29,2.80
2012,12,17,07,30,2.80
2012,12,17,07,31,2.80
2012,12,17,07,32,2.80
2012,12,17,07,33,2.80
2012,12,17,07,34,2.80
2012,12,17,07,35,2.80
2012,12,17,07,36,2.80
2012,12,17,07,37,2.80
2012,12,17,07,38,2.70
2012,12,17,07,39,2.70
2012,12,17,07,40,2.70
2012,12,17,07,41,2.60
2012,12,17,07,42,2.60
2012,12,17,07,43,2.50
2012,12,17,07,44,2.50
2012,12,17,07,45,2.40
2012,12,17,07,46,2.40
2012,12,17,07,47,2.30
2012,12,17,07,48,2.30
2012,12,17,07,49,2.20
2012,12,17,07,50,2.20
2012,12,17,07,51,2.20
2012,12,17,07,52,2.10
2012,12,17,07,53,2.10
2012,12,17,07,54,2.00
2012,12,17,07,55,2.00
2012,12,17,07,56,1.90
2012,12,17,07,57,1.90
2012,12,17,07,58,1.90
2012,12,17,07,59,1.90
2012,12,17,08,00,1.80
2012,12,17,08,01,1.80
2012,12,17,08,02,1.80
2012,12,17,08,03,1.80
2012,12,17,08,04,1.80
2012,12,17,08,05,1.70
2012,12,17,08,06,1.70
2012,12,17,08,07,1.70
2012,12,17,08,08,1.70
2012,12,17,08,09,1.70
2012,12,17,08,10,1.70
2012,12,17,08,11,1.60
2012,12,17,08,12,1.60
2012,12,17,08,13,1.60
2012,12,17,08,14,1.60
2012,12,17,08,15,1.60
2012,12,17,08,16,1.60
2012,12,17,08,17,1.50
2012,12,17,08,18,1.50
2012,12,17,08,19,1.50
2012,12,17,08,20,1.50
2012,12,17,08,21,1.50
2012,12,17,08,22,1.40
2012,12,17,08,23,1.40
2012,12,17,08,24,1.40
2012,12,17,08,25,1.40
2012,12,17,08,26,1.40
2012,12,17,08,27,1.40
2012,12,17,08,28,1.40
2012,12,17,08,29,1.40
2012,12,17,08,30,1.40
2012,12,17,08,31,1.30
2012,12,17,08,32,1.30
2012,12,17,08,33,1.30
2012,12,17,08,34,1.30
2012,12,17,08,35,1.30
2012,12,17,08,36,1.30
2012,12,17,08,37,1.30
2012,12,17,08,38,1.30
2012,12,17,08,39,1.30
2012,12,17,08,40,1.30
2012,12,17,08,41,1.30
2012,12,17,08,42,1.30
2012,12,17,08,43,1.30
2012,12,17,08,44,1.30
2012,12,17,08,45,1.30
2012,12,17,08,46,1.30
2012,12,17,08,47,1.30
2012,12,17,08,48,1.30
2012,12,17,08,49,1.30
2012,12,17,08,50,1.30
2012,12,17,08,51,1.30
2012,12,17,08,52,1.30
2012,12,17,08,53,1.30
2012,12,17,08,54,1.30
2012,12,17,08,55,1.30
2012,12,17,08,56,1.30
2012,12,17,08,57,1.30
2012,12,17,08,58,1.30
2012,12,17,08,59,1.30
2012,12,17,09,00,1.30
2012,12,17,09,01,1.30
2012,12,17,09,02,1.30
2012,12,17,09,03,1.30
2012,12,17,09,04,1.30
2012,12,17,09,05,1.40
2012,12,17,09,06,1.40
2012,12,17,09,07,1.40
2012,12,17,09,08,1.40
2012,12,17,09,09,1.40
2012,12,17,09,10,1.40
2012,12,17,09,11,1.40
2012,12,17,09,12,1.50
2012,12,17,09,13,1.50
2012,12,17,09,14,1.50
2012,12,17,09,15,1.50
2012,12,17,09,16,1.50
2012,12,17,09,17,1.50
2012,12,17,09,18,1.50
2012,12,17,09,19,1.50
2012,12,17,09,20,1.50
2012,12,17,09,21,1.50
2012,12,17,09,22,1.40
2012,12,17,09,23,1.40
2012,12,17,09,24,1.40
2012,12,17,09,25,1.40
2012,12,17,09,26,1.40
2012,12,17,09,27,1.40
2012,12,17,09,28,1.40
2012,12,17,09,29,1.40
2012,12,17,09,30,1.40
2012,12,17,09,31,1.40
2012,12,17,09,32,1.40
2012,12,17,09,33,1.40
2012,12,17,09,34,1.50
2012,12,17,09,35,1.50
2012,12,17,09,36,1.50
2012,12,17,09,37,1.60
2012,12,17,09,38,1.60
2012,12,17,09,39,1.60
2012,12,17,09,40,1.60
2012,12,17,09,41,1.60
2012,12,17,09,42,1.60
2012,12,17,09,43,1.60
2012,12,17,09,44,1.60
2012,12,17,09,45,1.60
2012,12,17,09,46,1.70
2012,12,17,09,47,1.70
2012,12,17,09,48,1.70
2012,12,17,09,49,1.70
2012,12,17,09,50,1.70
2012,12,17,09,51,1.70
2012,12,17,09,52,1.70
2012,12,17,09,53,1.70
2012,12,17,09,54,1.80
2012,12,17,09,55,1.80
2012,12,17,09,56,1.80
2012,12,17,09,57,1.80
2012,12,17,09,58,1.80
2012,12,17,09,59,1.80
2012,12,17,10,00,1.80
2012,12,17,10,01,1.80
2012,12,17,10,02,1.80
2012,12,17,10,03,1.80
2012,12,17,10,04,1.80
2012,12,17,10,05,1.80
2012,12,17,10,06,1.80
2012,12,17,10,07,1.80
2012,12,17,10,08,1.80
2012,12,17,10,09,1.80
2012,12,17,10,10,1.80
2012,12,17,10,11,1.80
2012,12,17,10,12,1.90
2012,12,17,10,13,1.90
2012,12,17,10,14,1.90
2012,12,17,10,15,1.90
2012,12,17,10,16,1.90
2012,12,17,10,17,1.90
2012,12,17,10,18,1.90
2012,12,17,10,19,2.00
2012,12,17,10,20,2.00
2012,12,17,10,21,2.00
2012,12,17,10,22,2.00
2012,12,17,10,23,2.00
2012,12,17,10,24,2.00
2012,12,17,10,25,2.00
2012,12,17,10,26,2.00
2012,12,17,10,27,2.00
2012,12,17,10,28,2.00
2012,12,17,10,29,2.10
2012,12,17,10,30,2.00
2012,12,17,10,31,2.00
2012,12,17,10,32,2.00
2012,12,17,10,33,2.00
2012,12,17,10,34,2.00
2012,12,17,10,35,2.00
2012,12,17,10,36,2.00
2012,12,17,10,37,2.00
2012,12,17,10,38,2.00
2012,12,17,10,39,2.00
2012,12,17,10,40,2.00
2012,12,17,10,41,2.10
2012,12,17,10,42,2.10
2012,12,17,10,43,2.10
2012,12,17,10,44,2.10
2012,12,17,10,45,2.10
2012,12,17,10,46,2.10
2012,12,17,10,47,2.10
2012,12,17,10,48,2.10
2012,12,17,10,49,2.10
2012,12,17,10,50,2.10
2012,12,17,10,51,2.10
2012,12,17,10,52,2.20
2012,12,17,10,53,2.10
2012,12,17,10,54,2.10
2012,12,17,10,55,2.10
2012,12,17,10,56,2.10
2012,12,17,10,57,2.10
2012,12,17,10,58,2.10
2012,12,17,10,59,2.10
2012,12,17,11,00,2.10
2012,12,17,11,01,2.10
2012,12,17,11,02,2.20
2012,12,17,11,03,2.20
2012,12,17,11,04,2.20
2012,12,17,11,05,2.20
2012,12,17,11,06,2.20
2012,12,17,11,07,2.20
2012,12,17,11,08,2.20
2012,12,17,11,09,2.20
2012,12,17,11,10,2.20
2012,12,17,11,11,2.30
2012,12,17,11,12,2.30
2012,12,17,11,13,2.30
2012,12,17,11,14,2.30
2012,12,17,11,15,2.30
2012,12,17,11,16,2.40
2012,12,17,11,17,2.40
2012,12,17,11,18,2.40
2012,12,17,11,19,2.50
2012,12,17,11,20,2.50
2012,12,17,11,21,2.50
2012,12,17,11,22,2.50
2012,12,17,11,23,2.50
2012,12,17,11,24,2.50
2012,12,17,11,25,2.50
2012,12,17,11,26,2.50
2012,12,17,11,27,2.50
2012,12,17,11,28,2.50
2012,12,17,11,29,2.40
2012,12,17,11,30,2.40
2012,12,17,11,31,2.40
2012,12,17,11,32,2.40
2012,12,17,11,33,2.40
2012,12,17,11,34,2.40
2012,12,17,11,35,2.40
2012,12,17,11,36,2.40
2012,12,17,11,37,2.40
2012,12,17,11,38,2.40
2012,12,17,11,39,2.40
2012,12,17,11,40,2.40
2012,12,17,11,41,2.40
2012,12,17,11,42,2.40
2012,12,17,11,43,2.50
2012,12,17,11,44,2.50
2012,12,17,11,45,2.50
2012,12,17,11,46,2.50
2012,12,17,11,47,2.60
2012,12,17,11,48,2.60
2012,12,17,11,49,2.60
2012,12,17,11,50,2.60
2012,12,17,11,51,2.60
2012,12,17,11,52,2.70
2012,12,17,11,53,2.70
2012,12,17,11,54,2.70
2012,12,17,11,55,2.70
2012,12,17,11,56,2.70
2012,12,17,11,57,2.70
2012,12,17,11,58,2.80
2012,12,17,11,59,2.80
2012,12,17,12,00,2.80
2012,12,17,12,01,2.80
2012,12,17,12,02,2.80
2012,12,17,12,03,2.90
2012,12,17,12,04,2.90
2012,12,17,12,05,2.90
2012,12,17,12,06,3.00
2012,12,17,12,07,3.10
2012,12,17,12,08,3.20
2012,12,17,12,09,3.20
2012,12,17,12,10,3.30
2012,12,17,12,11,3.30
2012,12,17,12,12,3.40
2012,12,17,12,13,3.50
2012,12,17,12,14,3.60
2012,12,17,12,15,3.60
2012,12,17,12,16,3.70
2012,12,17,12,17,3.70
2012,12,17,12,18,3.80
2012,12,17,12,19,3.80
2012,12,17,12,20,3.80
2012,12,17,12,21,3.90
2012,12,17,12,22,3.90
2012,12,17,12,23,4.00
2012,12,17,12,24,4.00
2012,12,17,12,25,4.00
2012,12,17,12,26,4.10
2012,12,17,12,27,4.10
2012,12,17,12,28,4.10
2012,12,17,12,29,4.10
2012,12,17,12,30,4.10
2012,12,17,12,31,4.20
2012,12,17,12,32,4.20
2012,12,17,12,33,4.20
2012,12,17,12,34,4.20
2012,12,17,12,35,4.20
2012,12,17,12,36,4.20
2012,12,17,12,37,4.20
2012,12,17,12,38,4.20
2012,12,17,12,39,4.20
2012,12,17,12,40,4.20
2012,12,17,12,41,4.30
2012,12,17,12,42,4.30
2012,12,17,12,43,4.30
2012,12,17,12,44,4.30
2012,12,17,12,45,4.30
2012,12,17,12,46,4.30
2012,12,17,12,47,4.30
2012,12,17,12,48,4.30
2012,12,17,12,49,4.30
2012,12,17,12,50,4.20
2012,12,17,12,51,4.20
2012,12,17,12,52,4.20
2012,12,17,12,53,4.30
2012,12,17,12,54,4.20
2012,12,17,12,55,4.30
2012,12,17,12,56,4.20
2012,12,17,12,57,4.20
2012,12,17,12,58,4.20
2012,12,17,12,59,4.20
2012,12,17,13,00,4.20
2012,12,17,13,01,4.20
2012,12,17,13,02,4.20
2012,12,17,13,03,4.20
2012,12,17,13,04,4.20
2012,12,17,13,05,4.20
2012,12,17,13,06,4.20
2012,12,17,13,07,4.20
2012,12,17,13,08,4.20
2012,12,17,13,09,4.20
2012,12,17,13,10,4.20
2012,12,17,13,11,4.20
2012,12,17,13,12,4.30
2012,12,17,13,13,4.30
2012,12,17,13,14,4.30
2012,12,17,13,15,4.30
2012,12,17,13,16,4.30
2012,12,17,13,17,4.30
2012,12,17,13,18,4.30
2012,12,17,13,19,4.30
2012,12,17,13,20,4.30
2012,12,17,13,21,4.30
2012,12,17,13,22,4.30
2012,12,17,13,23,4.30
2012,12,17,13,24,4.30
2012,12,17,13,25,4.30
2012,12,17,13,26,4.30
2012,12,17,13,27,4.30
2012,12,17,13,28,4.20
2012,12,17,13,29,4.20
2012,12,17,13,30,4.20
2012,12,17,13,31,4.20
2012,12,17,13,32,4.20
2012,12,17,13,33,4.20
2012,12,17,13,34,4.20
2012,12,17,13,35,4.20
2012,12,17,13,36,4.20
2012,12,17,13,37,4.20
2012,12,17,13,38,4.20
2012,12,17,13,39,4.20
2012,12,17,13,40,4.20
2012,12,17,13,41,4.20
2012,12,17,13,42,4.20
2012,12,17,13,43,4.30
2012,12,17,13,44,4.30
2012,12,17,13,45,4.30
2012,12,17,13,46,4.30
2012,12,17,13,47,4.30
2012,12,17,13,48,4.30
2012,12,17,13,49,4.30
2012,12,17,13,50,4.40
2012,12,17,13,51,4.40
2012,12,17,13,52,4.50
2012,12,17,13,53,4.60
2012,12,17,13,54,4.70
2012,12,17,13,55,4.70
2012,12,17,13,56,4.80
2012,12,17,13,57,4.80
2012,12,17,13,58,4.90
2012,12,17,13,59,4.90
2012,12,17,14,00,5.00
2012,12,17,14,01,5.00
2012,12,17,14,02,5.00
2012,12,17,14,03,5.10
2012,12,17,14,04,5.10
2012,12,17,14,05,5.10
2012,12,17,14,06,5.00
2012,12,17,14,07,5.00
2012,12,17,14,08,5.00
2012,12,17,14,09,4.90
2012,12,17,14,10,4.90
2012,12,17,14,11,4.90
2012,12,17,14,12,4.80
2012,12,17,14,13,4.80
2012,12,17,14,14,4.80
2012,12,17,14,15,4.80
2012,12,17,14,16,4.80
2012,12,17,14,17,4.80
2012,12,17,14,18,4.80
2012,12,17,14,19,4.80
2012,12,17,14,20,4.80
2012,12,17,14,21,4.80
2012,12,17,14,22,4.80
2012,12,17,14,23,4.80
2012,12,17,14,24,4.80
2012,12,17,14,25,4.80
2012,12,17,14,26,4.90
2012,12,17,14,27,4.90
2012,12,17,14,28,4.90
2012,12,17,14,29,4.90
2012,12,17,14,30,4.90
2012,12,17,14,31,4.80
2012,12,17,14,32,4.80
2012,12,17,14,33,4.80
2012,12,17,14,34,4.80
2012,12,17,14,35,4.70
2012,12,17,14,36,4.70
2012,12,17,14,37,4.60
2012,12,17,14,38,4.60
2012,12,17,14,39,4.60
2012,12,17,14,40,4.60
2012,12,17,14,41,4.60
2012,12,17,14,42,4.50
2012,12,17,14,43,4.50
2012,12,17,14,44,4.40
2012,12,17,14,45,4.40
2012,12,17,14,46,4.40
2012,12,17,14,47,4.40
2012,12,17,14,48,4.40
2012,12,17,14,49,4.30
2012,12,17,14,50,4.30
2012,12,17,14,51,4.30
2012,12,17,14,52,4.30
2012,12,17,14,53,4.30
2012,12,17,14,54,4.30
2012,12,17,14,55,4.20
2012,12,17,14,56,4.20
2012,12,17,14,57,4.20
2012,12,17,14,58,4.20
2012,12,17,14,59,4.20
2012,12,17,15,00,4.10
2012,12,17,15,01,4.10
2012,12,17,15,02,4.10
2012,12,17,15,03,4.10
2012,12,17,15,04,4.10
2012,12,17,15,05,4.10
2012,12,17,15,06,4.10
2012,12,17,15,07,4.00
2012,12,17,15,08,4.00
2012,12,17,15,09,4.00
2012,12,17,15,10,4.00
2012,12,17,15,11,4.00
2012,12,17,15,12,4.00
2012,12,17,15,13,4.00
2012,12,17,15,14,4.00
2012,12,17,15,15,4.00
2012,12,17,15,16,4.00
2012,12,17,15,17,4.00
2012,12,17,15,18,3.90
2012,12,17,15,19,3.90
2012,12,17,15,20,3.90
2012,12,17,15,21,3.90
2012,12,17,15,22,3.90
2012,12,17,15,23,3.90
2012,12,17,15,24,3.90
2012,12,17,15,25,3.90
2012,12,17,15,26,3.90
2012,12,17,15,27,3.90
2012,12,17,15,28,3.90
2012,12,17,15,29,3.90
2012,12,17,15,30,3.80
2012,12,17,15,31,3.80
2012,12,17,15,32,3.80
2012,12,17,15,33,3.80
2012,12,17,15,34,3.80
2012,12,17,15,35,3.80
2012,12,17,15,36,3.80
2012,12,17,15,37,3.80
2012,12,17,15,38,3.80
2012,12,17,15,39,3.70
2012,12,17,15,40,3.70
2012,12,17,15,41,3.70
2012,12,17,15,42,3.70
2012,12,17,15,43,3.70
2012,12,17,15,44,3.60
2012,12,17,15,45,3.60
2012,12,17,15,46,3.60
2012,12,17,15,47,3.60
2012,12,17,15,48,3.60
2012,12,17,15,49,3.60
2012,12,17,15,50,3.60
2012,12,17,15,51,3.60
2012,12,17,15,52,3.60
2012,12,17,15,53,3.60
2012,12,17,15,54,3.60
2012,12,17,15,55,3.50
2012,12,17,15,56,3.50
2012,12,17,15,57,3.50
2012,12,17,15,58,3.50
2012,12,17,15,59,3.50
2012,12,17,16,00,3.50
2012,12,17,16,01,3.50
2012,12,17,16,02,3.50
2012,12,17,16,03,3.50
2012,12,17,16,04,3.50
2012,12,17,16,05,3.50
2012,12,17,16,06,3.50
2012,12,17,16,07,3.50
2012,12,17,16,08,3.60
2012,12,17,16,09,3.60
2012,12,17,16,10,3.60
2012,12,17,16,11,3.60
2012,12,17,16,12,3.60
2012,12,17,16,13,3.60
2012,12,17,16,14,3.60
2012,12,17,16,15,3.60
2012,12,17,16,16,3.60
2012,12,17,16,17,3.60
2012,12,17,16,18,3.60
2012,12,17,16,19,3.60
2012,12,17,16,20,3.70
2012,12,17,16,21,3.70
2012,12,17,16,22,3.70
2012,12,17,16,23,3.70
2012,12,17,16,24,3.70
2012,12,17,16,25,3.70
2012,12,17,16,26,3.60
2012,12,17,16,27,3.60
2012,12,17,16,28,3.60
2012,12,17,16,29,3.60
2012,12,17,16,30,3.60
2012,12,17,16,31,3.60
2012,12,17,16,32,3.60
2012,12,17,16,33,3.60
2012,12,17,16,34,3.60
2012,12,17,16,35,3.60
2012,12,17,16,36,3.60
2012,12,17,16,37,3.60
2012,12,17,16,38,3.60
2012,12,17,16,39,3.60
2012,12,17,16,40,3.50
2012,12,17,16,41,3.50
2012,12,17,16,42,3.50
2012,12,17,16,43,3.50
2012,12,17,16,44,3.50
2012,12,17,16,45,3.40
2012,12,17,16,46,3.40
2012,12,17,16,47,3.50
2012,12,17,16,48,3.50
2012,12,17,16,49,3.50
2012,12,17,16,50,3.50
2012,12,17,16,51,3.50
2012,12,17,16,52,3.50
2012,12,17,16,53,3.50
2012,12,17,16,54,3.50
2012,12,17,16,55,3.50
2012,12,17,16,56,3.50
2012,12,17,16,57,3.50
2012,12,17,16,58,3.50
2012,12,17,16,59,3.50
2012,12,17,17,00,3.60
2012,12,17,17,01,3.60
2012,12,17,17,02,3.50
2012,12,17,17,03,3.50
2012,12,17,17,04,3.50
2012,12,17,17,05,3.50
2012,12,17,17,06,3.50
2012,12,17,17,07,3.50
2012,12,17,17,08,3.50
2012,12,17,17,09,3.50
2012,12,17,17,10,3.60
2012,12,17,17,11,3.60
2012,12,17,17,12,3.60
2012,12,17,17,13,3.60
2012,12,17,17,14,3.60
2012,12,17,17,15,3.60
2012,12,17,17,16,3.60
2012,12,17,17,17,3.60
2012,12,17,17,18,3.60
2012,12,17,17,19,3.60
2012,12,17,17,20,3.60
2012,12,17,17,21,3.50
2012,12,17,17,22,3.60
2012,12,17,17,23,3.60
2012,12,17,17,24,3.60
2012,12,17,17,25,3.60
2012,12,17,17,26,3.60
2012,12,17,17,27,3.60
2012,12,17,17,28,3.50
2012,12,17,17,29,3.50
2012,12,17,17,30,3.50
2012,12,17,17,31,3.50
2012,12,17,17,32,3.60
2012,12,17,17,33,3.60
2012,12,17,17,34,3.60
2012,12,17,17,35,3.60
2012,12,17,17,36,3.60
2012,12,17,17,37,3.60
2012,12,17,17,38,3.60
2012,12,17,17,39,3.60
2012,12,17,17,40,3.60
2012,12,17,17,41,3.60
2012,12,17,17,42,3.60
2012,12,17,17,43,3.60
2012,12,17,17,44,3.60
2012,12,17,17,45,3.60
2012,12,17,17,46,3.60
2012,12,17,17,47,3.60
2012,12,17,17,48,3.70
2012,12,17,17,49,3.70
2012,12,17,17,50,3.70
2012,12,17,17,51,3.70
2012,12,17,17,52,3.70
2012,12,17,17,53,3.70
2012,12,17,17,54,3.70
2012,12,17,17,55,3.70
2012,12,17,17,56,3.70
2012,12,17,17,57,3.60
2012,12,17,17,58,3.60
2012,12,17,17,59,3.60
2012,12,17,18,00,3.60
2012,12,17,18,01,3.60
2012,12,17,18,02,3.50
2012,12,17,18,03,3.50
2012,12,17,18,04,3.50
2012,12,17,18,05,3.50
2012,12,17,18,06,3.50